, AK

(GMT )
Denali Park

Weather History for PAIN - June, 2019

Change the Weather History Date:

Monday, June 3, 2019

  Actual Average Record
Temperature  
Mean Temperature 54 °F -  
Max Temperature 63 °F 58 °F 78 °F (1953)
Min Temperature 44 °F 35 °F 26 °F (1955)
Degree Days  
Heating Degree Days 12    
Growing Degree Days 4 (Base 50)    
Moisture  
Dew Point 38 °F    
Average Humidity 59    
Maximum Humidity 93    
Minimum Humidity 26    
Precipitation  
Precipitation 0.00 in - - ()
Sea Level Pressure  
Sea Level Pressure 29.89 in    
Wind  
Wind Speed 5 mph (North)    
Max Wind Speed 12 mph    
Max Gust Speed 22 mph    
Visibility 10 miles    
Events Rain    
Averages and records for this station are not official NWS values.
T = Trace of Precipitation, MM = Missing Value Source: NWS Daily Summary

Daily Weather History Graph

Daily Weather History Graph

Search for Another Location

Airport or City:

Astronomy

Jun. 03, 2019 Rise Set
Actual Time 3:53 AM AKDT 11:56 PM AKDT
Civil Twilight 2:26 AM AKDT 1:21 AM AKDT
Nautical Twilight Sun does not set Sun does not set
Astronomical Twilight Sun does not set Sun does not set
Moon 4:57 AM AKDT (6/3) No Moon Set
Length of Visible Light 22h 55m
Length of Day
20h 02m
New Moon, 0% of the Moon is Illuminated
Jun 3
New Moon
Jun 9
First Quarter
Jun 17
Full
Jun 25
Last Quarter
Jul 2
New

Hourly Weather History & Observations

Time (AKDT) Temp. Dew Point Humidity Pressure Visibility Wind Dir Wind Speed Gust Speed Precip Events Conditions
12:56 AM 50.0 °F 42.1 °F 74% 29.89 in 10.0 mi NNW 5.8 mph - 0.00 in   Overcast
1:56 AM 48.9 °F 39.9 °F 71% 29.88 in 10.0 mi Variable 4.6 mph - N/A   Clear
2:56 AM 45.0 °F 42.1 °F 90% 29.89 in 10.0 mi Calm Calm - N/A   Overcast
3:56 AM 45.0 °F 42.1 °F 90% 29.89 in 10.0 mi Calm Calm - N/A   Overcast
4:56 AM 44.1 °F 42.1 °F 93% 29.90 in 10.0 mi Calm Calm - N/A   Overcast
5:56 AM 46.0 °F 43.0 °F 89% 29.90 in 10.0 mi Calm Calm - N/A   Overcast
6:56 AM 46.9 °F 43.0 °F 86% 29.90 in 10.0 mi North 3.5 mph - N/A   Mostly Cloudy
7:56 AM 50.0 °F 44.1 °F 80% 29.89 in 10.0 mi North 6.9 mph - N/A   Scattered Clouds
8:56 AM 53.1 °F 44.1 °F 71% 29.89 in 10.0 mi North 8.1 mph - N/A   Clear
9:56 AM 55.9 °F 44.1 °F 64% 29.88 in 10.0 mi North 9.2 mph - N/A   Clear
10:56 AM 57.0 °F 44.1 °F 62% 29.88 in 10.0 mi NNE 8.1 mph - N/A   Clear
11:56 AM 55.0 °F 44.1 °F 67% 29.89 in 10.0 mi NNE 8.1 mph - 0.00 in Rain Light Rain
12:56 PM 55.0 °F 43.0 °F 64% 29.88 in 10.0 mi NNE 4.6 mph - 0.00 in Rain Light Rain
1:56 PM 59.0 °F 39.0 °F 48% 29.87 in 10.0 mi North 4.6 mph - N/A   Mostly Cloudy
2:56 PM 62.1 °F 33.1 °F 34% 29.87 in 10.0 mi North 10.4 mph - N/A   Clear
3:56 PM 63.0 °F 30.0 °F 29% 29.87 in 10.0 mi North 11.5 mph 18.4 mph N/A   Partly Cloudy
4:56 PM 62.1 °F 28.9 °F 29% 29.88 in 10.0 mi North 11.5 mph 17.3 mph N/A   Clear
5:56 PM 62.1 °F 27.0 °F 26% 29.87 in 10.0 mi North 11.5 mph 21.9 mph N/A   Clear
6:56 PM 63.0 °F 28.0 °F 27% 29.86 in 10.0 mi Variable 6.9 mph - N/A   Clear
7:56 PM 61.0 °F 28.9 °F 30% 29.87 in 10.0 mi Variable 5.8 mph - N/A   Partly Cloudy
8:56 PM 59.0 °F 30.0 °F 33% 29.88 in 10.0 mi North 4.6 mph - N/A   Partly Cloudy
9:56 PM 54.0 °F 34.0 °F 47% 29.89 in 10.0 mi Calm Calm - N/A   Mostly Cloudy
10:56 PM 48.9 °F 34.0 °F 56% 29.91 in 10.0 mi Calm Calm - N/A   Clear
11:56 PM 46.0 °F 33.1 °F 61% 29.93 in 10.0 mi Calm Calm - N/A   Scattered Clouds